Chubbuck, ID

11:23 AM MST on February 09, 2016 (GMT -0700)
Pocatello Regional

Weather History for KPIH - August, 2013

Change the Weather History Date:

Saturday, August 24, 2013

  Actual Average Record
Temperature  
Mean Temperature 73 °F 67 °F  
Max Temperature 89 °F 85 °F 98 °F (1988)
Min Temperature 57 °F 49 °F 35 °F (2010)
Degree Days  
Heating Degree Days 0 1  
Month to date heating degree days 0 11  
Since 1 June heating degree days 90 162  
Since 1 July heating degree days 0 31  
Cooling Degree Days 8 3  
Month to date cooling degree days 185 125  
Year to date cooling degree days 579 348  
Since 1 June cooling degree days 570 343  
Growing Degree Days 24 (Base 50)    
Moisture  
Dew Point 49 °F    
Average Humidity 48    
Maximum Humidity 72    
Minimum Humidity 23    
Precipitation  
Precipitation 0.02 in 0.02 in 0.36 in (1951)
Month to date precipitation 0.06 0.45  
Year to date precipitation 3.88 7.91  
Snow  
Snow 0.00 in - - ()
Month to date snowfall 0.0  
Since 1 June snowfall 0.0  
Since 1 July snowfall 0.0  
Snow Depth 0.00 in    
Sea Level Pressure  
Sea Level Pressure 29.87 in    
Wind  
Wind Speed 11 mph (East)    
Max Wind Speed 23 mph    
Max Gust Speed 32 mph    
Visibility 10 miles    
Events Rain , Thunderstorm    
T = Trace of Precipitation, MM = Missing Value Source: NWS Daily Summary

Daily Weather History Graph

Daily Weather History Graph

Search for Another Location

Airport or City:

Trip Planner

Search our weather history database for the weather conditions in past years. The results will help you decide how hot, cold, wet, or windy it might be!

Date:

Astronomy

Aug. 24, 2013 Rise Set
Actual Time 6:46 AM MDT 8:17 PM MDT
Civil Twilight 6:16 AM MDT 8:47 PM MDT
Nautical Twilight 5:40 AM MDT 9:23 PM MDT
Astronomical Twilight 5:02 AM MDT 10:01 PM MDT
Moon 10:06 PM MDT (8/24) 10:58 AM MDT (8/24)
Length of Visible Light 14h 30m
Length of Day
13h 31m
Waning Gibbous, 84% of the Moon is Illuminated
Aug 24
Waning Gibbous
Aug 28
Last Quarter
Sep 5
New
Sep 12
First Quarter
Sep 19
Full

Hourly Weather History & Observations

Time (MDT) Temp. Dew Point Humidity Pressure Visibility Wind Dir Wind Speed Gust Speed Precip Events Conditions
12:53 AM 70.0 °F 51.1 °F 51% 29.82 in 10.0 mi Variable 6.9 mph - N/A   Clear
1:53 AM 70.0 °F 51.1 °F 51% 29.81 in 10.0 mi SSE 12.7 mph 18.4 mph N/A   Clear
2:53 AM 69.1 °F 51.1 °F 53% 29.83 in 10.0 mi South 10.4 mph 16.1 mph N/A   Clear
3:53 AM 64.0 °F 51.1 °F 63% 29.84 in 10.0 mi East 5.8 mph - N/A   Clear
4:53 AM 63.0 °F 51.1 °F 65% 29.86 in 10.0 mi Variable 4.6 mph - N/A   Clear
5:53 AM 63.0 °F 51.1 °F 65% 29.88 in 10.0 mi ENE 13.8 mph - N/A   Clear
6:53 AM 63.0 °F 51.1 °F 65% 29.91 in 10.0 mi Variable 5.8 mph - N/A   Scattered Clouds
7:53 AM 61.0 °F 52.0 °F 72% 29.95 in 10.0 mi NNW 5.8 mph - N/A   Scattered Clouds
8:53 AM 64.0 °F 53.1 °F 67% 29.95 in 10.0 mi East 5.8 mph - 0.00 in Rain Light Rain
9:08 AM 62.6 °F 55.4 °F 77% 30.05 in 10.0 mi ENE 11.5 mph - 0.01 in Rain , Thunderstorm Light Thunderstorms and Rain
9:53 AM 68.0 °F 57.0 °F 68% 29.93 in 10.0 mi East 11.5 mph - 0.02 in Rain Light Rain
10:53 AM 78.1 °F 55.0 °F 45% 29.90 in 10.0 mi ESE 16.1 mph - 0.00 in   Partly Cloudy
11:53 AM 81.0 °F 51.1 °F 35% 29.88 in 10.0 mi ESE 11.5 mph - N/A   Partly Cloudy
12:53 PM 84.0 °F 48.0 °F 28% 29.86 in 10.0 mi South 10.4 mph - N/A   Partly Cloudy
1:53 PM 88.0 °F 46.0 °F 23% 29.82 in 10.0 mi South 16.1 mph 24.2 mph N/A   Partly Cloudy
2:53 PM 89.1 °F 46.0 °F 22% 29.80 in 10.0 mi South 18.4 mph 27.6 mph N/A   Scattered Clouds
3:23 PM 84.2 °F 44.6 °F 25% 29.94 in 10.0 mi SSE 12.7 mph 24.2 mph N/A   Partly Cloudy
3:53 PM 86.0 °F 45.0 °F 24% 29.77 in 10.0 mi South 17.3 mph 23.0 mph N/A   Mostly Cloudy
4:53 PM 79.0 °F 48.0 °F 34% 29.80 in 10.0 mi NNE 10.4 mph - N/A   Mostly Cloudy
5:53 PM 80.1 °F 46.0 °F 30% 29.79 in 10.0 mi ENE 10.4 mph - N/A   Scattered Clouds
6:53 PM 77.0 °F 44.1 °F 31% 29.82 in 10.0 mi NNE 9.2 mph - N/A   Scattered Clouds
7:53 PM 72.0 °F 48.0 °F 43% 29.88 in 10.0 mi North 13.8 mph 21.9 mph N/A   Mostly Cloudy
8:53 PM 71.1 °F 43.0 °F 36% 29.89 in 10.0 mi NNE 11.5 mph - N/A   Partly Cloudy
9:53 PM 66.9 °F 46.0 °F 47% 29.92 in 10.0 mi NE 16.1 mph 24.2 mph N/A   Clear
10:53 PM 62.1 °F 48.9 °F 62% 29.92 in 10.0 mi NNW 5.8 mph - N/A   Clear
11:53 PM 59.0 °F 48.9 °F 69% 29.92 in 10.0 mi ENE 4.6 mph - N/A   Clear